Regional Weather Roundup
Issued by NWS

Home | Current Version | Previous Version | Graphics & Text | Print | Product List | Glossary On
Versions: 1 2 3 4 5 6 7 8 9 10 11 12 13 14 15 16 17 18 19 20 21 22 23 24 25 26 27 28 29 30 31 32 33 34 35 36 37 38 39 40 41 42 43 44 45 46 47 48 49 50
663
ASUS45 KPSR 040310
RWRAZ

ARIZONA HOURLY REGIONAL WEATHER ROUNDUP
NATIONAL WEATHER SERVICE PHOENIX AZ
800 PM MST SAT DEC 03 2016

NOTE: FAIR INDICATES FEW OR NO CLOUDS BELOW 12,000 FEET WITH NO
SIGNIFICANT WEATHER AND/OR OBSTRUCTIONS TO VISIBILITY.

AZZ001>003-036-040400-
NORTHWEST ARIZONA

CITY           SKY/WX    TMP DP  RH WIND       PRES   REMARKS
BULLHEAD CITY  CLEAR     57  10  15 N14       30.09S
KINGMAN        CLEAR     38  10  31 E12       30.13R WCI  30
$$

AZZ004>008-015-016-018-040400-
NORTH CENTRAL ARIZONA

CITY           SKY/WX    TMP DP  RH WIND       PRES   REMARKS
GRAND CANYON   PTCLDY    19  11  70 CALM      30.16R
PRESCOTT       CLEAR     36  15  42 NW7       30.08R WCI  30
FLAGSTAFF      CLEAR     35  10  35 NE29G38   30.07S WCI  22
PAYSON         CLEAR     39  14  35 N5        30.08S
PAGE           CLEAR     35  11  36 CALM      30.16R
$$

AZZ009>014-017-040400-
NORTHEAST ARIZONA

CITY           SKY/WX    TMP DP  RH WIND       PRES   REMARKS
WINSLOW        CLEAR     36  10  34 NW9       30.12R WCI  29
SAINT JOHNS    CLEAR     34  21  59 W8        30.08R WCI  27
WINDOW ROCK    CLEAR     29  16  58 N6        30.10R WCI  23
SHOW LOW       CLEAR     27  18  69 NE5       30.10S WCI  21
$$

AZZ023-040400-
GREATER PHOENIX AREA

CITY           SKY/WX    TMP DP  RH WIND       PRES   REMARKS
PHOENIX        CLEAR     57  29  34 SW3       29.94R
BUCKEYE        CLEAR     55  23  28 W8        29.99R
LUKE AFB       CLEAR     57  27  31 CALM      29.95R
DEER VALLEY    CLEAR     60  24  25 NE7       29.95R
SCOTTSDALE     CLEAR     58  28  32 CALM      29.97R
MESA-FALCON    CLEAR    N/A N/A N/A NW7       29.94R
MESA-GATEWAY   CLEAR     55  27  33 W5        29.97R
$$

AZZ027-028-040400-
SOUTHWEST MARICOPA COUNTY AND PINAL COUNTY

CITY           SKY/WX    TMP DP  RH WIND       PRES   REMARKS
CASA GRANDE    NOT AVBL
$$

AZZ503-504-507>509-040400-
SOUTHEAST ARIZONA

CITY           SKY/WX    TMP DP  RH WIND       PRES   REMARKS
TUCSON         CLEAR     52  27  38 W7        29.98R
DAVIS-MONTHAN  CLEAR     53  26  34 NW5       29.97R
RYAN FIELD     CLEAR     52  28  40 S6        29.99R
NOGALES        PTCLDY    46  31  55 CALM      29.98R
SIERRA VISTA   CLEAR     45  37  74 W2        30.00S
DOUGLAS        CLEAR     43  38  82 E5        29.99R
SAFFORD        PTCLDY    49  39  68 E8        29.98R
$$

AZZ020-021-025-026-031-040400-
SOUTHWEST ARIZONA

CITY           SKY/WX    TMP DP  RH WIND       PRES   REMARKS
YUMA           CLEAR     61   5  10 N8        30.02R
$$

CAZ031-033-041-043-047-048-061-040400-
SOUTHERN CALIFORNIA

CITY           SKY/WX    TMP DP  RH WIND       PRES   REMARKS
DOWNTOWN L.A.  CLEAR     56  21  25 CALM      30.04S
L.A. AIRPORT   CLEAR     60  43  53 VRB5      30.05R
SAN DIEGO      CLEAR     58  37  45 N3        30.07R
BURBANK        CLEAR     55  28  35 N3        30.05S
ONTARIO        CLEAR     59  11  15 N7        30.05S
RIVERSIDE      CLEAR     62  16  16 W6        30.04R
PALM SPRINGS   CLEAR     66  11  11 VRB3      30.06R
EL CENTRO NAS  CLEAR     56   5  13 W8        30.06R
IMPERIAL       CLEAR     58  14  17 SW6       30.03R
BLYTHE         CLEAR     60   1   9 N20       30.03S
NEEDLES        CLEAR     58   8  13 N14       30.08S
$$

NVZ020-UTZ003-040400-
SOUTHERN NEVADA-UTAH

CITY           SKY/WX    TMP DP  RH WIND       PRES   REMARKS
LAS VEGAS      CLEAR     52   7  16 W3        30.15R
SALT LAKE CITY MOCLDY    33  22  63 SE8       30.26F WCI  26
$$

NMZ009-TXZ055-040400-
NEW MEXICO-WEST TEXAS

CITY           SKY/WX    TMP DP  RH WIND       PRES   REMARKS
ALBUQUERQUE    CLEAR     38  26  62 NW9       30.05R WCI  31
EL PASO        CLOUDY    45  36  70 SE3       29.99R
$$


........................KEY........................
SKY/WX - SKY CONDITION/WEATHER
TMP    - TEMPERATURE IN FAHRENHEIT
DP     - DEW POINT IN FAHRENHEIT
RH     - RELATIVE HUMIDITY IN PERCENT
WIND   - DIRECTION AND SPEED IN MILES PER HOUR (MPH)
VRB    - VARIABLE WIND DIRECTION
PRES   - MEAN SEA LEVEL PRESSURE IN INCHES OF MERCURY
         F - FALLING PRESSURE   R - RISING PRESSURE
         S - STEADY PRESSURE
VSB    - VISIBILITY IN MILES
HX     - HEAT INDEX IN FAHRENHEIT
WCI    - WIND CHILL INDEX IN FAHRENHEIT
TC     - TEMPERATURE IN CELSIUS WHICH IS ALSO KNOWN AS
         TEMPERATURE IN CENTIGRADE
AFB    - AIR FORCE BASE
         LUKE AFB IS LUKE AIR FORCE BASE
         DAVIS-MONTHAN IS DAVIS-MONTHAN AIR FORCE BASE
NAS    - NAVAL AIR STATION
         EL CENTRO NAS IS EL CENTRO NAVAL AIR STATION
N/A    - NOT AVAILABLE





USA.gov is the U.S. government's official web portal to all federal, state and local government web resources and services.